Weather History for KCEY - January, 2014

Change the Weather History Date:

Tuesday, January 14, 2014

  Actual Average (KPAH) Record (KPAH)
Temperature  
Mean Temperature 44 °F 34 °F  
Max Temperature 55 °F 43 °F 67 °F (1952)
Min Temperature 32 °F 26 °F 1 °F (1964)
Degree Days  
Heating Degree Days 22 31  
Month to date heating degree days 431  
Since 1 July heating degree days 2062  
Cooling Degree Days 0 0  
Month to date cooling degree days 0  
Year to date cooling degree days 0  
Moisture  
Dew Point 33 °F    
Average Humidity 77    
Maximum Humidity 100    
Minimum Humidity 41    
Precipitation  
Precipitation 0.01 in 0.12 in 2.74 in (1951)
Month to date precipitation 1.67  
Year to date precipitation 1.67  
Snow  
Snow 0.00 in 0.10 in 3.00 in (1968)
Month to date snowfall 1.2  
Since 1 July snowfall 3.5  
Snow Depth -    
Sea Level Pressure  
Sea Level Pressure 29.94 in    
Wind  
Wind Speed 8 mph (WSW)    
Max Wind Speed 18 mph    
Max Gust Speed 26 mph    
Visibility 10 miles    
Events      
T = Trace of Precipitation, MM = Missing Value Source: NWS Daily Summary

Daily Weather History Graph

Daily Weather History Graph

Search for Another Location

Airport or City:

Trip Planner

Search our weather history database for the weather conditions in past years. The results will help you decide how hot, cold, wet, or windy it might be!

Date:

Astronomy

Jan. 14, 2014 Rise Set
Actual Time 7:05 AM CST 5:00 PM CST
Civil Twilight 6:37 AM CST 5:28 PM CST
Nautical Twilight 6:05 AM CST 6:00 PM CST
Astronomical Twilight 5:34 AM CST 6:31 PM CST
Moon 4:04 PM CST (1/14) 5:40 AM CST (1/14)
Length of Visible Light 10h 51m
Length of Day
9h 55m
Waxing Gibbous, 98% of the Moon is Illuminated
Jan 14
Waxing Gibbous
Jan 15
Full
Jan 23
Last Quarter
Jan 30
New
Feb 6
First Quarter

Hourly Weather History & Observations

Time (CST) Temp. Windchill Dew Point Humidity Pressure Visibility Wind Dir Wind Speed Gust Speed Precip Events Conditions
12:15 AM 39.2 °F 34.2 °F 35.6 °F 87% 29.88 in 10.0 mi NW 6.9 mph - N/A   Clear
12:35 AM 37.4 °F 32.1 °F 35.6 °F 93% 29.88 in 10.0 mi NW 6.9 mph - N/A   Clear
12:55 AM 37.4 °F 32.8 °F 33.8 °F 87% 29.88 in 10.0 mi NW 5.8 mph - N/A   Clear
1:15 AM 37.4 °F 32.1 °F 32.0 °F 81% 29.89 in 10.0 mi NW 6.9 mph - N/A   Clear
1:35 AM 37.4 °F 32.8 °F 32.0 °F 81% 29.89 in 10.0 mi NW 5.8 mph - N/A   Clear
1:55 AM 37.4 °F 32.8 °F 32.0 °F 81% 29.90 in 10.0 mi WNW 5.8 mph - N/A   Clear
2:15 AM 37.4 °F 32.1 °F 32.0 °F 81% 29.91 in 10.0 mi WNW 6.9 mph - N/A   Clear
2:35 AM 35.6 °F 30.7 °F 32.0 °F 87% 29.91 in 10.0 mi WNW 5.8 mph - N/A   Clear
2:55 AM 35.6 °F 31.7 °F 32.0 °F 87% 29.90 in 10.0 mi WNW 4.6 mph - N/A   Clear
3:15 AM 35.6 °F 31.7 °F 32.0 °F 87% 29.90 in 10.0 mi WNW 4.6 mph - N/A   Clear
3:35 AM 35.6 °F 31.7 °F 32.0 °F 87% 29.90 in 10.0 mi West 4.6 mph - N/A   Clear
3:55 AM 35.6 °F 29.9 °F 32.0 °F 87% 29.90 in 10.0 mi WSW 6.9 mph - N/A   Clear
4:15 AM 33.8 °F 28.6 °F 30.2 °F 87% 29.90 in 10.0 mi SW 5.8 mph - N/A   Clear
4:35 AM 33.8 °F 27.7 °F 32.0 °F 93% 29.91 in 10.0 mi WSW 6.9 mph - N/A   Clear
4:55 AM 33.8 °F 29.6 °F 30.2 °F 87% 29.91 in 10.0 mi SW 4.6 mph - N/A   Clear
5:15 AM 32.0 °F 27.5 °F 28.4 °F 87% 29.90 in 10.0 mi SSW 4.6 mph - N/A   Clear
5:35 AM 32.0 °F 26.4 °F 30.2 °F 93% 29.90 in 10.0 mi SSW 5.8 mph - N/A   Clear
5:55 AM 32.0 °F 26.4 °F 30.2 °F 93% 29.90 in 10.0 mi SSW 5.8 mph - N/A   Clear
6:15 AM 33.8 °F 27.7 °F 30.2 °F 87% 29.91 in 10.0 mi SSW 6.9 mph - N/A   Clear
6:35 AM 35.6 °F 29.9 °F 30.2 °F 81% 29.91 in 10.0 mi SSW 6.9 mph - N/A   Clear
6:55 AM 35.6 °F 29.9 °F 30.2 °F 81% 29.91 in 10.0 mi South 6.9 mph - N/A   Clear
7:15 AM 33.8 °F 27.7 °F 30.2 °F 87% 29.91 in 10.0 mi South 6.9 mph - N/A   Clear
7:35 AM 33.8 °F 27.0 °F 30.2 °F 87% 29.92 in 10.0 mi South 8.1 mph - N/A   Clear
7:55 AM 35.6 °F 29.9 °F 32.0 °F 87% 29.92 in 10.0 mi SSW 6.9 mph - N/A   Clear
8:15 AM 37.4 °F 32.8 °F 32.0 °F 81% 29.92 in 10.0 mi South 5.8 mph - N/A   Clear
8:35 AM 37.4 °F 32.8 °F 32.0 °F 81% 29.92 in 10.0 mi SSW 5.8 mph - N/A   Clear
8:55 AM 39.2 °F 34.2 °F 32.0 °F 75% 29.92 in 10.0 mi SSW 6.9 mph - N/A   Clear
9:15 AM 41.0 °F 35.2 °F 32.0 °F 70% 29.93 in 10.0 mi SSW 9.2 mph - N/A   Clear
9:35 AM 42.8 °F 37.5 °F 33.8 °F 70% 29.93 in 10.0 mi SSW 9.2 mph - N/A   Clear
9:55 AM 44.6 °F 40.2 °F 33.8 °F 66% 29.92 in 10.0 mi South 8.1 mph 18.4 mph N/A   Clear
10:15 AM 46.4 °F 42.4 °F 33.8 °F 62% 29.92 in 10.0 mi SSW 8.1 mph - N/A   Clear
10:35 AM 46.4 °F 41.9 °F 33.8 °F 62% 29.91 in 10.0 mi SSW 9.2 mph 19.6 mph N/A   Clear
10:55 AM 48.2 °F - 35.6 °F 62% 29.89 in 10.0 mi South 11.5 mph 16.1 mph N/A   Clear
11:15 AM 50.0 °F - 35.6 °F 58% 29.88 in 10.0 mi SSW 10.4 mph 17.3 mph N/A   Clear
11:35 AM 50.0 °F - 33.8 °F 54% 29.87 in 10.0 mi SSW 17.3 mph 21.9 mph N/A   Clear
11:55 AM 51.8 °F - 35.6 °F 54% 29.86 in 10.0 mi SSW 15.0 mph 19.6 mph N/A   Clear
12:15 PM 53.6 °F - 35.6 °F 51% 29.87 in 10.0 mi SW 11.5 mph 17.3 mph N/A   Clear
12:35 PM 53.6 °F - 35.6 °F 51% 29.85 in 10.0 mi WSW 16.1 mph 23.0 mph N/A   Clear
12:55 PM 55.4 °F - 33.8 °F 44% 29.85 in 10.0 mi WSW 13.8 mph 20.7 mph N/A   Clear
1:15 PM 55.4 °F - 32.0 °F 41% 29.85 in 10.0 mi West 16.1 mph 24.2 mph N/A   Clear
1:35 PM 55.4 °F - 32.0 °F 41% 29.84 in 10.0 mi WSW 15.0 mph 21.9 mph N/A   Clear
1:55 PM 53.6 °F - 33.8 °F 47% 29.84 in 10.0 mi WSW 17.3 mph 21.9 mph N/A   Clear
2:15 PM 53.6 °F - 33.8 °F 47% 29.85 in 10.0 mi WSW 15.0 mph 19.6 mph N/A   Scattered Clouds
2:35 PM 55.4 °F - 32.0 °F 41% 29.87 in 10.0 mi West 18.4 mph 26.5 mph N/A   Scattered Clouds
2:55 PM 53.6 °F - 32.0 °F 44% 29.88 in 10.0 mi WNW 15.0 mph 21.9 mph N/A   Partly Cloudy
3:15 PM 51.8 °F - 33.8 °F 50% 29.89 in 10.0 mi West 15.0 mph 23.0 mph N/A   Clear
3:35 PM 50.0 °F - 35.6 °F 58% 29.91 in 10.0 mi WNW 12.7 mph 23.0 mph N/A   Scattered Clouds
3:55 PM 50.0 °F - 35.6 °F 58% 29.92 in 10.0 mi NW 13.8 mph - N/A   Overcast
4:15 PM 48.2 °F - 35.6 °F 62% 29.94 in 10.0 mi NW 11.5 mph - N/A   Overcast
4:35 PM 46.4 °F 39.5 °F 37.4 °F 71% 29.97 in 8.0 mi NW 17.3 mph 25.3 mph N/A   Overcast
4:55 PM 42.8 °F 36.2 °F 37.4 °F 81% 29.98 in 6.0 mi NNW 12.7 mph - N/A   Overcast
5:15 PM 41.0 °F 37.1 °F 39.2 °F 93% 29.97 in 8.0 mi NNE 5.8 mph - 0.01 in   Overcast
5:35 PM 41.0 °F 38.0 °F 39.2 °F 93% 29.99 in 10.0 mi NNW 4.6 mph - 0.01 in   Overcast
5:55 PM 41.0 °F 38.0 °F 39.2 °F 93% 30.00 in 10.0 mi NNW 4.6 mph - 0.01 in   Overcast
6:15 PM 39.2 °F - 39.2 °F 100% 30.00 in 10.0 mi Calm Calm - N/A   Mostly Cloudy
6:35 PM 39.2 °F 37.0 °F 37.4 °F 93% 30.00 in 10.0 mi West 3.5 mph - N/A   Partly Cloudy
6:55 PM 39.2 °F 37.0 °F 37.4 °F 93% 30.01 in 10.0 mi WSW 3.5 mph - N/A   Scattered Clouds
7:15 PM 37.4 °F - 35.6 °F 93% 30.01 in 8.0 mi Calm Calm - N/A   Mostly Cloudy
7:35 PM 35.6 °F 32.8 °F 35.6 °F 100% 30.01 in 5.0 mi SSW 3.5 mph - N/A   Partly Cloudy
7:55 PM 35.6 °F 30.7 °F 35.6 °F 100% 30.02 in 10.0 mi WSW 5.8 mph - N/A   Clear
8:15 PM 35.6 °F 30.7 °F 35.6 °F 100% 30.03 in 10.0 mi WSW 5.8 mph - N/A   Clear
8:35 PM 35.6 °F 30.7 °F 35.6 °F 100% 30.03 in 10.0 mi WSW 5.8 mph - N/A   Clear
8:55 PM 35.6 °F 29.9 °F 35.6 °F 100% 30.04 in 10.0 mi WSW 6.9 mph - N/A   Clear
9:15 PM 37.4 °F 31.4 °F 35.6 °F 93% 30.04 in 10.0 mi West 8.1 mph - N/A   Clear
9:35 PM 35.6 °F 28.6 °F 35.6 °F 100% 30.05 in 10.0 mi WNW 9.2 mph - N/A   Clear
9:55 PM 35.6 °F 29.2 °F 32.0 °F 87% 30.05 in 10.0 mi NW 8.1 mph - N/A   Clear
10:15 PM 35.6 °F 29.2 °F 32.0 °F 87% 30.05 in 10.0 mi NW 8.1 mph - N/A   Clear
10:35 PM 35.6 °F 29.9 °F 28.4 °F 75% 30.06 in 10.0 mi NW 6.9 mph - N/A   Clear
10:55 PM 35.6 °F 29.9 °F 28.4 °F 75% 30.06 in 10.0 mi NNW 6.9 mph - N/A   Clear
11:15 PM 35.6 °F 30.7 °F 28.4 °F 75% 30.07 in 10.0 mi NNW 5.8 mph - N/A   Clear
11:35 PM 33.8 °F 27.7 °F 28.4 °F 81% 30.07 in 10.0 mi NNW 6.9 mph - N/A   Clear
11:55 PM 32.0 °F 27.5 °F 26.6 °F 80% 30.07 in 10.0 mi NNW 4.6 mph - N/A   Clear